Location: Unspecified
(52.4292°N, 19.3359°E)
Time: 15:53:01
(UTC+02:00)

Transit 2A Rocket - Pass Details

Date: 23 May 2024
Orbit: 583 x 910 km, 66.7° (Epoch: 14 June)

Event Time Altitude Azimuth Distance (km) Brightness Sun altitude
Rises 06:29:51 0° 255° (WSW) 3,077 7.5 14.8°
Reaches altitude 10° 06:32:20 10° 266° (W) 2,215 6.9 15.2°
Maximum altitude 06:36:53 32° 329° (NNW) 1,304 6.2 15.9°
Drops below altitude 10° 06:41:50 10° 32° (NNE) 2,421 8.4 16.6°
Sets 06:44:40 0° 43° (NE) 3,409 9.3 17.0°
